Location: Thouarc�
(47.2667°N, 0.5000°W)
Time: 17:24:44
(UTC+02:00)

Envisat - Visible Passes

Search period start: 19 April 2024 00:00
Search period end: 29 April 2024 00:00
Orbit: 762 x 764 km, 98.3° (Epoch: 19 April)

Date Brightness Start Highest point End Pass type
(mag) Time Alt. Az. Time Alt. Az. Time Alt. Az.
19 Apr 4.1 04:56:42 10° NNE 05:01:31 42° E 05:06:13 10° SSE visible
20 Apr 5.2 04:20:09 10° NE 04:23:52 20° E 04:27:35 10° SE visible
20 Apr 3.1 05:58:14 10° N 06:03:14 58° WNW 06:08:11 10° SSW visible
21 Apr 3.3 05:20:51 10° NNE 05:25:56 69° ESE 05:30:59 10° S visible
22 Apr 4.5 04:43:52 10° NNE 04:48:26 32° E 04:52:58 10° SSE visible
22 Apr 3.7 06:22:48 10° N 06:27:25 36° WNW 06:32:02 10° SW visible
23 Apr 5.5 04:07:42 10° NE 04:10:43 16° E 04:13:44 10° SE visible
23 Apr 3.0 05:45:10 10° N 05:50:16 75° WNW 05:55:19 10° SSW visible
24 Apr 3.7 05:07:54 10° NNE 05:12:53 53° E 05:17:50 10° S visible
25 Apr 4.9 04:31:07 10° NE 04:35:19 25° E 04:39:29 10° SSE visible
25 Apr 3.4 06:09:39 10° N 06:14:29 46° WNW 06:19:19 10° SW visible
26 Apr 5.6 03:55:38 10° ENE 03:57:31 12° E 03:59:24 10° ESE visible
26 Apr 3.0 05:32:08 10° NNE 05:37:15 86° ESE 05:42:20 10° SSW visible
27 Apr 4.1 04:55:01 10° NNE 04:59:49 41° E 05:04:35 10° SSE visible
28 Apr 5.2 04:18:28 10° NE 04:22:10 20° E 04:25:50 10° SE visible
28 Apr 3.1 05:56:31 10° N 06:01:31 59° WNW 06:06:30 10° SSW visible
